Temperature
21 21 21 21 24 24 22 22 22 22 22 21 21 21 21 21 21 20 17 17 16 16 16 16 16 16 16 16 16 16 16 16 17 17 17 17 17 17 17 17 17 17 17 17 17 17 17 17 17
21 21 21 23 25 24 22 22 22 22 21 20 20 20 21 20 19 18 17 16 16 16 16 16 16 16 16 16 16 16 16 16 16 16 17 17 17 17 17 17 17 17 17 17 17 17 17 17 17
21 21 22 24 24 23 22 22 22 21 20 21 20 20 20 19 18 17 17 16 16 16 16 16 16 16 16 16 16 16 16 16 16 16 16 17 17 17 17 17 17 17 17 17 17 17 17 17 17
21 21 23 24 23 22 22 22 22 22 21 20 21 20 19 17 17 17 17 16 16 16 16 16 16 16 16 16 16 16 16 16 16 16 16 16 16 17 17 17 17 17 17 17 17 17 17 17 17
21 23 24 23 22 22 23 22 22 22 21 21 21 20 19 17 17 17 16 16 16 16 16 16 16 16 16 16 16 16 16 16 16 16 16 16 16 16 16 16 16 16 16 17 16 17 17 17 17
22 24 24 22 22 22 23 22 22 22 21 21 20 20 18 17 17 17 16 16 16 16 16 16 16 16 16 16 16 16 16 16 16 16 16 16 16 16 16 16 16 16 16 16 16 16 17 17 17
23 24 23 22 22 22 22 22 22 22 22 21 20 20 19 18 17 17 16 16 16 16 16 16 16 16 16 16 16 16 16 16 16 16 16 16 16 16 16 16 16 16 16 16 16 16 16 16 17
22 24 23 23 22 22 22 22 21 21 21 20 20 20 19 18 17 17 17 16 16 16 16 16 16 16 16 16 16 16 16 16 16 16 16 16 16 16 16 16 16 16 16 16 16 16 16 16 16
22 24 23 23 22 22 22 22 21 20 21 20 19 19 18 17 17 17 17 17 17 16 16 16 16 16 16 16 16 16 16 16 16 16 16 16 16 15 16 16 16 16 16 16 16 16 16 16 16
24 24 23 23 23 23 22 22 21 21 21 20 19 18 18 17 17 17 17 17 17 17 17 17 16 16 16 16 16 16 16 16 16 15 15 15 15 15 16 16 16 16 16 16 16 16 16 16 16
24 23 23 23 22 22 22 22 21 22 22 21 20 19 18 18 18 18 18 17 17 17 17 17 17 16 16 16 16 16 16 16 15 15 15 15 15 15 15 15 15 15 15 15 15 15 15 16 16
24 23 23 22 22 22 22 22 21 21 21 20 19 19 18 18 18 18 18 17 17 17 17 17 16 16 16 16 16 16 16 16 16 15 15 15 15 15 15 15 15 15 15 15 15 15 15 15 15
24 23 22 22 21 21 21 21 21 20 20 19 19 19 18 18 18 18 18 17 17 17 17 17 16 16 16 16 16 16 16 16 16 15 15 15 15 15 15 15 15 15 15 15 15 15 15 15 15
23 23 22 22 22 21 22 21 21 20 20 19 19 19 18 18 18 18 18 18 17 17 17 16 16 16 16 16 16 16 16 16 16 15 15 15 15 15 15 15 15 15 15 15 15 15 15 15 15
23 23 23 22 22 22 22 22 21 20 20 20 19 19 18 18 18 18 18 18 17 17 17 16 16 16 16 16 16 16 16 16 16 15 15 15 15 15 15 15 15 15 15 15 15 15 15 14 14
24 24 23 23 23 22 23 22 22 20 20 20 20 19 19 18 18 18 18 18 17 17 17 16 16 16 16 16 16 16 16 16 15 15 15 15 15 15 15 15 15 15 15 15 15 14 14 14 14
24 24 23 23 23 23 23 22 22 20 20 20 20 20 19 19 18 18 18 17 17 17 17 16 16 16 16 16 16 15 16 15 15 15 15 15 15 15 15 15 15 15 15 15 14 14 14 14 14
24 24 23 23 23 23 22 22 22 21 20 21 20 20 19 19 18 18 17 17 17 17 17 16 16 16 16 16 16 15 15 15 15 15 15 15 15 15 15 15 15 15 15 15 14 14 14 14 14
24 24 23 23 23 23 22 22 22 21 21 21 20 20 20 19 18 18 17 17 17 17 17 16 16 16 16 16 15 15 15 15 15 15 15 15 15 15 15 15 15 15 15 15 14 14 14 14 14
24 23 23 23 23 23 23 23 23 22 21 21 21 20 20 19 19 18 17 17 17 17 17 17 16 16 16 15 15 15 15 15 15 15 15 15 15 15 15 15 15 15 15 15 14 14 14 14 14
24 24 24 23 22 23 23 23 23 22 21 20 20 20 20 19 19 18 18 17 17 17 17 16 16 16 16 15 15 15 15 15 15 15 15 15 15 15 15 15 15 15 15 14 14 14 14 14 14
24 24 23 23 23 23 23 23 23 23 22 21 20 20 20 19 18 18 17 17 17 17 16 16 16 16 15 15 15 15 15 15 15 15 15 15 15 15 15 15 15 15 14 15 14 14 14 14 14
23 23 23 23 23 23 23 23 24 23 22 22 21 20 20 19 18 18 17 17 17 17 16 16 16 16 15 15 15 15 15 15 15 15 15 15 15 15 15 14 14 14 14 14 14 14 14 14 14
23 23 23 23 23 23 23 23 23 24 23 23 22 21 20 19 18 18 17 17 17 16 16 16 16 16 15 15 15 15 15 15 15 15 15 14 14 14 14 14 14 14 14 14 14 14 14 14 14
23 23 23 23 23 23 23 23 23 23 23 22 22 21 20 19 18 18 17 17 16 16 16 16 16 15 15 15 15 15 15 15 14 14 14 14 14 14 14 14 14 14 14 14 14 14 14 14 14
23 24 23 22 23 23 23 23 24 23 22 21 21 20 20 19 18 18 17 17 16 16 16 16 15 15 15 15 15 15 15 14 14 14 14 14 14 14 14 14 14 14 14 14 14 14 14 14 14
23 23 24 23 23 23 23 23 24 22 22 21 21 20 20 19 18 18 17 17 16 16 16 16 15 15 15 15 15 15 15 14 14 14 14 14 14 14 14 14 14 14 14 14 14 14 14 14 14
23 23 23 23 22 22 23 23 23 23 22 22 21 21 20 19 18 17 17 17 17 16 16 16 15 15 15 15 15 15 15 14 14 14 14 14 14 14 14 14 14 14 14 14 14 14 14 14 14
22 22 23 23 23 22 22 23 24 23 22 22 22 21 20 19 18 17 17 17 17 16 16 16 15 15 15 15 15 15 15 14 14 14 14 14 14 14 14 14 14 14 14 14 14 14 14 14 14
23 23 23 22 22 22 22 23 23 23 22 22 21 20 20 19 18 17 17 16 16 16 16 16 15 15 15 15 15 15 14 14 14 14 14 14 14 14 14 14 14 14 14 14 14 14 14 13 13
Wind_Speed
3 2 2 2 1 4 8 6 5 5 5 7 7 6 7 8 6 5 4 4 4 4 5 5 5 6 6 6 7 7 7 8 9 9 10 10 9 9 9 8 8 8 8 8 8 8 8 9 9
1 1 1 1 1 5 7 6 7 7 5 5 6 7 7 8 7 6 4 5 4 5 5 6 6 5 6 7 7 7 8 8 8 9 9 10 9 9 9 9 9 9 8 8 8 9 9 10 10
1 1 1 2 5 7 6 5 6 6 5 3 5 6 5 5 5 4 5 4 4 5 5 6 5 6 7 7 7 8 8 8 8 8 8 9 9 9 9 9 9 9 9 9 9 9 9 10 9
1 1 2 6 12 10 7 6 5 6 6 5 5 7 6 6 4 5 5 5 5 6 6 8 7 7 7 7 7 8 8 8 8 8 8 8 9 9 9 9 9 9 10 10 10 9 9 9 9
0 1 5 9 11 8 7 6 5 6 5 6 7 8 8 6 6 7 6 5 5 6 6 8 7 7 7 7 8 8 8 8 8 8 8 9 9 9 9 10 10 10 11 11 11 11 10 10 9
1 2 6 9 10 8 7 6 6 8 8 8 7 8 7 6 6 6 5 5 5 6 6 7 7 6 7 7 8 8 8 8 9 9 9 9 9 9 9 10 10 11 11 11 12 11 11 10 10
3 4 8 9 9 7 6 5 6 7 8 7 5 7 6 6 5 5 5 5 5 5 6 6 6 6 6 6 7 7 8 9 9 10 10 10 10 10 9 10 10 11 11 11 11 11 12 12 12
2 4 8 7 7 7 6 5 5 5 6 5 3 5 6 6 5 5 5 4 4 5 5 5 5 5 6 7 7 7 8 9 10 10 10 10 9 10 9 9 10 11 12 12 12 12 13 14 13
2 5 8 6 6 7 6 6 5 4 6 6 5 6 7 8 6 5 5 5 5 4 4 5 5 5 6 6 6 6 7 7 7 9 8 5 7 9 9 12 10 11 12 12 12 11 11 12 12
3 7 8 6 6 7 7 6 5 6 7 6 7 7 8 7 6 5 5 5 5 5 5 4 4 5 5 5 5 5 6 6 7 7 7 7 7 8 8 10 10 10 11 11 11 9 8 6 8
6 8 8 7 7 7 7 6 5 5 5 4 6 8 8 7 5 4 5 5 5 4 4 4 4 5 5 4 5 5 5 5 6 7 7 6 6 6 6 6 7 7 7 8 8 7 7 8 7
9 9 8 8 7 6 6 6 5 4 5 4 5 7 7 6 5 5 5 5 4 4 4 4 4 4 5 4 4 4 4 4 5 5 6 5 4 4 5 5 6 5 6 6 7 6 8 8 8
9 8 7 7 7 6 6 5 4 4 3 4 6 7 6 5 4 4 4 4 4 4 3 4 3 4 4 4 3 4 4 4 5 5 5 5 4 4 5 5 5 6 6 6 6 6 8 7 8
8 8 7 6 6 5 5 4 3 3 4 5 6 6 5 4 4 4 3 3 3 4 4 4 4 4 3 3 3 4 4 4 4 4 4 5 4 4 4 5 5 5 5 5 6 7 6 6 7
8 8 6 4 4 3 3 3 2 2 4 5 5 5 5 4 4 3 3 2 3 3 4 4 3 4 4 4 4 3 3 4 4 4 4 5 4 4 3 3 4 4 5 5 5 7 6 6 6
5 4 4 3 2 2 3 2 3 3 4 4 4 5 4 4 3 3 3 3 3 3 4 4 3 3 4 3 3 3 3 3 3 3 3 4 4 3 3 3 3 4 4 4 4 4 5 5 5
4 3 2 3 2 2 2 1 2 3 4 4 3 4 4 4 3 3 3 3 3 3 4 4 3 3 3 3 3 2 3 3 2 2 2 3 3 3 3 3 3 4 4 4 3 4 4 4 5
3 2 2 1 2 3 3 2 2 3 4 4 4 4 4 4 3 4 3 3 3 3 3 4 3 2 3 2 2 2 2 2 2 2 2 2 2 2 2 3 3 3 3 3 3 4 4 4 3
2 2 1 1 1 3 3 3 3 4 4 4 4 4 4 4 4 4 4 4 4 3 3 3 3 3 2 2 1 1 1 1 1 1 2 1 1 1 2 2 3 2 3 3 4 4 4 3 3
4 3 2 1 1 3 3 4 3 4 6 5 4 4 4 5 5 5 5 5 4 4 3 3 2 2 2 1 1 1 1 1 1 1 2 1 1 1 1 2 2 3 2 3 4 3 2 2 1
4 4 3 2 2 3 4 3 4 4 5 5 4 4 4 5 5 6 6 6 5 4 4 3 2 2 2 2 1 1 1 1 1 2 1 1 1 1 1 1 2 3 3 3 3 3 3 2 1
3 2 3 4 4 2 3 3 1 4 5 5 6 5 5 5 5 6 6 6 6 5 4 4 3 3 2 2 1 1 0 0 0 0 1 1 1 1 1 1 2 2 2 3 3 3 2 2 1
0 1 3 4 4 4 4 4 1 3 4 5 6 6 5 5 6 6 6 6 6 6 5 4 3 3 3 2 1 1 1 0 0 0 1 1 1 1 1 1 2 2 2 2 2 2 3 2 2
4 4 3 4 5 4 3 4 1 1 1 1 4 6 6 6 6 5 6 6 6 5 5 4 4 3 3 2 2 2 1 1 1 1 1 1 1 1 1 1 1 2 2 2 2 3 3 3 2
5 4 3 4 3 1 0 4 2 2 1 2 2 5 7 7 6 6 7 7 7 6 6 5 5 4 3 3 2 2 2 2 2 1 1 1 1 1 1 1 1 1 1 1 2 2 2 3 3
4 5 4 3 3 2 2 4 0 1 1 1 2 3 6 7 7 7 7 7 7 7 6 6 5 4 4 3 3 2 2 2 2 2 1 1 1 1 1 1 1 0 1 1 1 2 2 2 2
4 4 4 4 4 5 3 2 2 2 1 1 2 4 5 6 7 7 7 7 6 7 7 6 5 4 4 4 3 3 3 2 2 2 2 1 1 1 1 1 1 1 1 1 1 1 2 2 2
3 2 3 4 4 4 3 4 2 3 1 1 2 3 4 6 7 7 7 6 6 6 6 6 5 5 4 4 3 3 3 3 3 2 3 3 2 2 2 2 1 1 1 1 1 1 1 2 2
4 5 4 4 4 5 4 2 1 1 0 1 1 3 4 6 6 7 6 6 5 5 5 5 5 5 5 4 4 4 4 3 3 3 3 3 3 3 2 2 2 2 2 2 2 2 2 2 2
6 6 6 6 5 5 6 3 2 1 1 2 2 2 4 5 6 6 6 6 6 5 5 5 5 5 5 5 4 4 4 4 4 4 4 4 3 3 3 3 2 2 2 2 2 2 2 2 2
Wind_Direction
167 162 224 240 168 85 70 62 57 68 65 57 59 63 64 50 40 69 77 57 51 58 61 68 52 50 49 51 54 56 56 57 58 58 60 61 64 69 69 70 74 79 85 87 88 89 89 89 85
145 197 237 279 79 93 73 63 66 62 85 89 71 68 70 64 56 79 82 63 58 59 57 55 56 52 53 55 53 56 58 59 61 60 61 60 65 67 66 66 71 74 79 81 81 84 86 87 85
142 256 354 49 65 68 83 71 76 81 79 77 82 63 59 64 63 73 73 75 71 63 59 64 55 58 62 61 57 58 61 62 62 61 62 62 66 68 68 70 74 75 76 77 80 83 84 87 87
209 131 77 82 82 72 81 89 97 108 87 69 90 87 78 60 63 76 84 76 71 68 68 74 65 61 61 61 61 63 64 64 64 64 65 66 69 69 70 69 75 78 78 78 76 77 79 82 84
90 87 100 95 87 85 79 79 90 88 85 81 88 96 90 76 76 82 81 72 68 68 72 77 73 65 59 60 60 61 63 64 63 65 66 66 68 69 69 70 76 76 76 76 74 72 73 76 79
101 102 107 100 99 95 86 84 89 87 92 95 95 96 89 90 85 81 75 68 65 68 71 82 90 72 59 59 60 60 62 65 67 66 65 66 67 72 71 72 76 78 78 77 73 71 70 74 79
83 89 98 107 109 100 88 85 78 88 89 84 92 98 105 102 88 88 80 71 65 68 70 71 78 90 93 73 60 58 62 65 68 69 66 66 67 72 75 77 78 80 79 81 78 77 76 77 79
75 110 109 107 109 97 98 97 78 77 86 87 78 93 108 114 111 107 92 77 71 74 74 70 67 61 69 80 78 67 67 68 70 72 70 73 81 81 80 83 79 80 83 83 81 81 81 78 76
108 115 106 105 106 106 113 106 92 90 98 93 78 74 97 117 124 116 104 92 85 80 73 67 67 63 60 63 75 84 87 81 88 89 85 80 76 76 80 69 74 82 85 84 81 82 84 86 85
89 98 93 94 102 112 108 100 109 115 104 102 101 100 114 126 127 116 103 94 89 79 68 68 66 64 64 63 68 67 72 73 70 71 72 69 72 70 73 84 81 86 91 95 87 85 91 85 83
84 92 103 103 105 111 108 101 101 108 93 94 114 123 130 129 125 115 102 89 84 78 66 57 63 62 63 68 65 63 67 71 73 70 72 73 78 82 77 83 97 95 96 87 90 83 70 70 67
99 93 101 107 110 110 106 105 95 79 74 81 111 126 133 134 129 117 100 87 83 78 68 57 52 64 65 66 66 68 71 70 72 70 65 68 72 71 72 75 78 78 80 77 74 74 74 69 67
102 102 103 109 113 110 108 104 92 79 85 105 121 130 134 133 129 117 105 105 99 92 87 70 58 56 67 68 65 74 75 71 76 69 62 70 76 75 78 83 81 78 78 82 79 77 75 70 62
107 112 115 116 118 118 115 103 101 87 114 122 129 132 134 132 133 128 120 99 93 95 91 81 74 71 63 72 75 72 74 79 72 71 63 73 79 82 81 84 84 79 77 79 84 84 80 72 68
128 122 119 115 130 135 147 110 98 108 138 137 141 135 132 135 141 138 122 110 97 95 93 87 80 79 77 73 72 74 73 75 71 65 61 72 75 86 89 86 90 91 93 93 90 88 81 79 77
147 152 134 121 150 169 217 99 103 142 158 152 149 144 150 149 153 142 131 124 109 98 94 97 96 85 80 78 76 78 79 74 72 70 67 68 73 82 91 94 93 100 102 100 94 87 82 77 72
180 160 126 129 160 182 213 140 137 169 180 179 174 168 172 164 167 153 148 139 121 111 106 104 94 86 87 85 83 70 75 74 65 60 65 73 78 85 96 99 103 108 111 109 101 92 85 84 80
166 166 154 144 146 188 210 220 167 184 203 199 197 196 191 187 180 168 161 153 142 129 120 114 110 92 90 89 84 80 71 70 62 52 59 66 83 97 109 127 126 125 125 116 112 109 98 91 92
193 206 213 101 157 220 239 248 222 201 210 214 207 209 206 197 185 171 167 171 167 154 140 122 127 113 101 93 87 65 65 73 82 73 66 82 95 115 119 138 139 148 141 134 137 127 121 113 108
197 220 218 165 169 243 261 261 241 209 214 221 221 216 208 194 189 177 179 181 183 165 162 142 136 131 120 103 77 92 68 59 71 82 80 69 81 109 133 155 157 160 152 155 152 153 140 128 164
218 246 251 242 224 225 269 247 204 194 206 210 221 226 213 199 195 185 183 182 179 173 170 163 157 150 137 122 114 107 109 148 129 106 95 68 70 114 179 158 158 168 177 170 176 180 181 176 187
246 242 240 229 245 254 267 295 180 188 200 211 219 222 219 201 201 193 187 185 180 176 175 172 164 156 140 140 142 141 112 40 42 73 117 129 117 130 157 163 174 183 184 185 193 195 199 208 208
272 153 211 239 262 270 249 271 209 169 215 216 214 215 211 199 198 195 190 184 177 169 170 175 167 161 157 156 157 225 244 319 117 124 135 144 120 109 137 160 176 192 196 203 210 212 215 214 232
150 169 184 219 246 258 262 260 277 160 263 236 205 205 201 193 188 187 182 179 174 168 169 176 177 173 175 183 190 211 218 224 205 198 167 160 139 127 117 152 186 197 202 208 216 216 213 226 229
206 234 240 226 226 255 117 257 267 55 339 299 239 201 192 188 183 179 176 178 178 179 180 183 185 185 189 201 210 218 228 230 221 213 194 194 165 156 149 182 216 201 199 206 216 217 213 214 220
219 251 275 292 290 299 220 250 238 74 322 296 219 188 183 183 184 182 179 179 182 184 187 191 191 193 194 205 211 219 223 237 238 232 220 209 201 181 165 196 224 198 198 195 201 220 209 212 211
210 234 291 284 283 277 249 243 218 160 160 140 158 170 181 184 184 182 179 182 185 188 191 198 200 200 200 207 214 221 221 223 226 228 217 212 204 187 186 187 195 180 190 197 199 223 213 215 218
269 217 223 250 275 274 262 253 240 178 174 178 183 189 188 183 180 180 182 187 190 190 192 196 202 206 207 213 213 210 220 221 225 218 211 212 207 198 206 211 193 182 187 193 204 226 238 217 205
194 211 232 249 266 278 284 269 68 89 32 252 222 208 195 188 184 183 185 187 186 185 191 195 201 209 211 214 213 212 217 220 215 213 215 220 215 211 217 219 223 206 204 203 199 219 213 212 205
240 238 230 250 251 258 276 272 122 212 299 286 269 211 193 187 186 183 181 182 186 189 194 200 205 209 212 217 217 221 220 218 216 213 213 217 216 219 223 217 223 224 229 231 216 211 218 222 221
Height
1525 1524 1525 1526 1524 1525 1533 1535 1532 1534 1535 1539 1538 1538 1538 1539 1541 1549 1550 1547 1547 1546 1545 1544 1543 1542 1542 1541 1540 1539 1539 1538 1538 1537 1537 1536 1536 1535 1534 1534 1534 1534 1535 1535 1535 1536 1536 1536 1536
1526 1525 1527 1527 1522 1530 1539 1536 1536 1537 1539 1540 1540 1540 1540 1543 1546 1548 1548 1548 1547 1547 1546 1545 1544 1543 1543 1542 1541 1541 1540 1539 1539 1539 1538 1538 1537 1536 1536 1536 1536 1535 1535 1536 1536 1537 1537 1537 1537
1526 1526 1529 1525 1527 1533 1540 1538 1538 1540 1541 1541 1542 1543 1544 1547 1548 1549 1550 1549 1549 1548 1547 1546 1545 1544 1544 1543 1542 1542 1541 1541 1540 1540 1540 1539 1539 1538 1538 1537 1537 1537 1537 1537 1538 1538 1538 1538 1538
1528 1529 1530 1529 1535 1537 1537 1538 1539 1540 1542 1543 1543 1545 1548 1550 1550 1551 1550 1550 1550 1549 1548 1547 1546 1546 1545 1544 1544 1543 1542 1542 1542 1541 1541 1541 1540 1540 1539 1539 1538 1538 1538 1539 1539 1539 1539 1540 1539
1529 1530 1529 1535 1538 1539 1539 1540 1540 1540 1542 1544 1544 1546 1549 1552 1551 1551 1551 1551 1551 1551 1550 1549 1548 1547 1546 1546 1545 1544 1544 1543 1543 1542 1542 1542 1542 1542 1541 1540 1539 1540 1540 1540 1541 1541 1541 1541 1540
1531 1529 1532 1539 1541 1540 1541 1542 1542 1542 1544 1546 1546 1547 1551 1553 1552 1552 1552 1552 1552 1552 1551 1551 1549 1549 1548 1547 1546 1546 1545 1545 1544 1544 1544 1544 1543 1543 1543 1543 1542 1542 1542 1542 1542 1542 1542 1542 1542
1532 1530 1535 1539 1542 1542 1543 1544 1543 1544 1545 1547 1548 1549 1552 1554 1554 1553 1553 1553 1553 1553 1553 1553 1552 1551 1550 1549 1548 1548 1547 1546 1546 1546 1545 1545 1545 1545 1545 1544 1544 1544 1544 1544 1544 1544 1544 1543 1543
1533 1533 1537 1539 1543 1544 1545 1546 1547 1546 1548 1550 1550 1549 1552 1555 1554 1555 1555 1555 1554 1554 1554 1554 1553 1553 1553 1552 1550 1549 1549 1548 1548 1547 1547 1547 1547 1547 1546 1546 1546 1546 1546 1546 1546 1546 1546 1545 1545
1534 1534 1539 1541 1542 1544 1546 1546 1548 1549 1549 1551 1551 1552 1554 1555 1555 1556 1556 1556 1556 1556 1556 1555 1555 1554 1554 1553 1552 1551 1551 1550 1550 1549 1549 1549 1550 1549 1549 1548 1548 1548 1548 1548 1548 1548 1548 1547 1547
1535 1536 1541 1541 1542 1544 1546 1547 1549 1549 1550 1551 1553 1554 1555 1556 1556 1557 1557 1557 1557 1557 1557 1557 1556 1556 1555 1555 1554 1554 1553 1552 1552 1552 1552 1552 1551 1551 1550 1550 1550 1550 1550 1550 1549 1549 1549 1549 1550
1536 1539 1542 1544 1545 1546 1547 1549 1550 1549 1550 1552 1553 1555 1556 1557 1557 1558 1558 1558 1558 1558 1558 1558 1558 1557 1557 1556 1556 1555 1555 1554 1554 1554 1553 1553 1553 1553 1553 1553 1552 1552 1552 1552 1551 1551 1551 1551 1551
1540 1542 1544 1546 1548 1548 1549 1550 1551 1551 1553 1554 1554 1555 1556 1557 1558 1558 1559 1559 1559 1559 1559 1559 1559 1558 1558 1558 1557 1556 1556 1556 1556 1556 1555 1555 1555 1555 1554 1554 1554 1554 1553 1553 1553 1553 1552 1552 1552
1541 1545 1547 1548 1549 1550 1551 1551 1552 1554 1555 1555 1556 1556 1557 1558 1559 1559 1560 1560 1560 1560 1560 1560 1559 1559 1559 1559 1558 1558 1558 1558 1558 1557 1557 1556 1556 1556 1556 1556 1555 1555 1555 1554 1554 1554 1554 1554 1554
1544 1546 1548 1549 1550 1551 1551 1552 1553 1554 1555 1555 1556 1557 1558 1558 1559 1560 1560 1560 1561 1561 1561 1560 1560 1560 1560 1560 1559 1559 1559 1559 1559 1558 1558 1558 1558 1558 1557 1557 1557 1556 1556 1556 1556 1556 1555 1555 1554
1545 1546 1548 1549 1550 1551 1551 1552 1553 1554 1555 1555 1556 1557 1558 1559 1559 1560 1560 1560 1561 1561 1561 1561 1561 1561 1561 1560 1560 1560 1560 1560 1560 1560 1560 1559 1559 1559 1559 1559 1558 1558 1558 1558 1557 1557 1557 1557 1556
1544 1544 1547 1549 1549 1551 1551 1553 1553 1554 1555 1555 1556 1557 1558 1558 1559 1560 1560 1561 1561 1562 1562 1561 1561 1561 1561 1561 1561 1561 1561 1561 1561 1561 1561 1561 1560 1560 1560 1560 1559 1559 1559 1559 1559 1559 1558 1558 1558
1543 1545 1547 1548 1549 1549 1549 1550 1552 1554 1554 1554 1555 1556 1557 1558 1559 1559 1560 1561 1561 1562 1562 1562 1562 1562 1562 1562 1562 1562 1562 1562 1562 1562 1561 1561 1561 1561 1561 1560 1560 1560 1560 1560 1560 1560 1560 1560 1559
1545 1544 1546 1547 1547 1548 1548 1549 1551 1552 1552 1552 1554 1554 1555 1556 1558 1559 1560 1560 1561 1562 1562 1562 1562 1562 1562 1562 1562 1562 1562 1562 1562 1562 1561 1561 1561 1561 1561 1561 1561 1561 1561 1561 1561 1561 1561 1561 1561
1541 1543 1546 1546 1547 1547 1547 1547 1547 1550 1551 1551 1552 1552 1553 1555 1557 1558 1559 1559 1560 1561 1562 1562 1562 1562 1562 1562 1562 1562 1562 1562 1562 1562 1562 1561 1561 1561 1561 1561 1561 1561 1562 1562 1562 1562 1562 1562 1562
1542 1544 1545 1546 1546 1546 1545 1544 1544 1546 1548 1549 1550 1550 1552 1553 1555 1556 1557 1558 1559 1560 1561 1562 1562 1562 1562 1562 1562 1562 1562 1562 1562 1562 1561 1561 1561 1561 1561 1562 1562 1561 1562 1562 1562 1562 1563 1562 1562
1542 1543 1543 1546 1546 1544 1545 1543 1541 1543 1546 1548 1549 1549 1550 1552 1553 1555 1556 1557 1558 1559 1560 1561 1561 1562 1562 1562 1562 1562 1562 1562 1562 1562 1561 1561 1561 1561 1561 1561 1561 1562 1562 1562 1562 1562 1562 1563 1562
1543 1541 1543 1545 1545 1544 1545 1546 1538 1539 1542 1545 1546 1547 1548 1550 1551 1553 1554 1555 1557 1558 1559 1560 1561 1561 1561 1562 1562 1562 1562 1562 1562 1561 1561 1561 1561 1561 1561 1561 1561 1561 1562 1562 1562 1562 1562 1562 1562
1542 1543 1543 1543 1543 1544 1542 1545 1537 1536 1539 1540 1543 1544 1546 1548 1550 1551 1552 1554 1555 1557 1558 1559 1560 1560 1561 1561 1561 1561 1561 1561 1561 1561 1560 1560 1560 1560 1560 1560 1561 1561 1561 1561 1561 1561 1562 1562 1562
1543 1543 1543 1542 1541 1548 1542 1544 1540 1534 1535 1536 1539 1542 1544 1546 1548 1549 1551 1552 1554 1555 1556 1557 1558 1559 1559 1560 1560 1560 1560 1560 1560 1560 1560 1560 1560 1559 1559 1559 1560 1560 1560 1560 1560 1560 1561 1561 1561
1542 1544 1549 1548 1548 1545 1540 1543 1538 1532 1534 1536 1537 1539 1542 1544 1546 1547 1549 1551 1552 1554 1555 1556 1557 1558 1558 1558 1559 1559 1559 1559 1559 1559 1559 1559 1559 1559 1559 1559 1559 1559 1559 1559 1559 1559 1560 1560 1559
1540 1540 1549 1554 1550 1542 1541 1541 1533 1533 1536 1536 1537 1539 1540 1542 1544 1546 1548 1549 1551 1552 1553 1555 1555 1556 1556 1557 1558 1558 1558 1558 1558 1558 1558 1558 1558 1558 1558 1558 1558 1558 1558 1558 1558 1558 1558 1559 1559
1540 1539 1537 1542 1543 1546 1538 1534 1531 1533 1534 1536 1537 1538 1539 1541 1543 1545 1546 1548 1550 1551 1552 1553 1554 1555 1555 1556 1556 1556 1557 1557 1557 1557 1557 1557 1557 1557 1557 1557 1557 1557 1557 1557 1557 1557 1557 1557 1557
1538 1537 1540 1543 1550 1549 1542 1536 1532 1531 1532 1533 1535 1537 1538 1540 1541 1543 1545 1547 1548 1549 1550 1551 1552 1553 1554 1554 1554 1555 1555 1555 1555 1555 1556 1556 1556 1556 1556 1556 1556 1556 1556 1556 1556 1556 1556 1556 1556
1541 1541 1539 1539 1541 1547 1547 1538 1526 1529 1531 1532 1533 1535 1537 1538 1540 1542 1543 1545 1547 1548 1549 1550 1551 1551 1552 1552 1553 1553 1553 1553 1553 1553 1554 1554 1554 1554 1554 1554 1555 1555 1554 1554 1554 1554 1554 1555 1555
1536 1535 1537 1543 1542 1541 1542 1538 1526 1529 1531 1532 1533 1534 1535 1537 1538 1540 1542 1543 1545 1546 1547 1548 1549 1549 1550 1550 1550 1550 1550 1550 1551 1551 1552 1552 1553 1553 1553 1553 1553 1553 1553 1553 1553 1553 1553 1553 1553